STARLINK-32378

Last updated on Fri Oct 04 2024 00:02:04 GMT+0000 (Coordinated Universal Time)

1 61064U 24164Q 24277.58334491 -.01347908 00000+0 -21188-1 0 9997 2 61064 53.1596 6.3103 0001478 78.1099 124.0129 15.55882961 4413
UTC large
Height (km)
Speed (km/s)
/
Latitude / Longitude
Inclination (degrees)
Orbital Period (minutes)
Azimuth
Elevation
Range (km)
Doppler Factor

Next 0 passes for location: London (51.5072 / 0.1276)

Sorry there are no passes over London.